Location: Cucq
(50.4773°N, 1.6202°E)
Time: 16:52:50
(UTC+00:00)

SJ 16-02 - Pass Details

Date: 07 August 2020
Orbit: 607 x 616 km, 75.0° (Epoch: 25 September)

Event Time Altitude Azimuth Distance (km) Brightness Sun altitude
Exits shadow 01:25:15 17° 130° (SE) 1,581 3.3 -20.6°
Maximum altitude 01:27:04 21° 98° (E) 1,383 3.3 -20.5°
Drops below altitude 10° 01:30:24 10° 49° (NE) 1,981 4.9 -20.3°
Sets 01:33:03 0° 34° (NE) 2,889 6.3 -20.1°
